Location: Quail Creek Observatory
(32.9410°N, 97.1240°W)
Time: 23:40:37
(UTC-05:00)

Daily predictions for brighter satellites

Satellite Brightness Start Highest point End
(mag) Time Altitude Azimuth Time Altitude Azimuth Time Altitude Azimuth
CZ-4B DEB 3.8 20:52:13 10° S 20:55:28 51° W 20:58:45 10° NNW
Meteor 2-15 Rocket 4.5 20:50:00 10° S 20:56:04 84° E 21:02:10 10° N
Cosmos 1812 4.2 20:53:32 10° SSW 20:57:12 41° W 21:00:52 10° N
ATLAS CENTAUR R/B 2.5 20:54:21 10° SW 20:59:10 62° WNW 21:04:11 10° NNE
SL-24 R/B - RUBIN 2 4.1 20:55:29 10° SSW 21:00:37 86° ESE 21:06:32 10° NNE
Cosmos 2237 Rocket 3.0 20:57:05 10° SSW 21:02:36 58° WNW 21:08:09 10° NNE
RESURS DK-1 4.1 20:59:32 10° NW 21:03:16 32° WSW 21:06:56 10° S
ATLAS 3B CENTAUR R/B 3.9 21:00:44 10° SW 21:03:21 16° S 21:07:29 10° SSE
Resurs 01 Rocket 3.6 20:59:42 10° SSW 21:03:35 30° W 21:07:30 10° NW
Atlas Centaur 2 3.4 21:01:02 10° SW 21:07:45 41° SSE 21:15:26 10° E
GEOS 3 Rocket 3.8 21:03:26 10° SE 21:08:39 64° NE 21:13:50 10° NNW
Cosmos 2278 Rocket 2.2 21:09:05 10° NNW 21:14:47 83° ENE 21:20:27 10° SSE
Cosmos 1025 Rocket 3.1 21:12:19 10° S 21:16:43 85° W 21:21:07 10° N
Cosmos 494 Rocket 4.0 21:11:52 10° S 21:16:52 59° ESE 21:21:53 10° NNE
PSLV R/B 3.4 21:13:36 10° SW 21:17:04 59° SSE 21:20:34 10° ENE
CZ-2D R/B 3.5 21:13:56 10° S 21:17:48 72° W 21:21:43 10° NNW
Aureole 2 Rocket 3.4 21:14:48 10° SSE 21:18:32 34° ESE 21:22:00 10° NE
Cosmos 2228 4.4 21:15:31 10° NNE 21:19:00 22° ENE 21:21:31 14° ESE
USA 186 1.6 21:16:15 10° S 21:19:15 80° W 21:22:05 10° NNW
COSMOS 2455 4.0 21:15:13 10° SSE 21:19:27 20° ESE 21:23:43 10° ENE
Cosmos 1892 Rocket 3.5 21:16:34 10° S 21:20:57 70° E 21:25:23 10° NNE
Cosmos 1939 Rocket 4.2 21:18:34 14° ESE 21:21:19 26° ENE 21:24:46 10° NNE
CZ-4 DEB 3.0 21:19:23 10° S 21:22:36 73° W 21:25:50 10° NNW
SPOT 5 4.1 21:26:57 15° ESE 21:29:15 22° ENE 21:32:38 10° NNE
SL-16 R/B 2.3 21:23:58 10° SSW 21:29:37 81° WNW 21:35:18 10° NNE
Cosmos 1666 3.8 21:29:46 10° NNE 21:33:10 28° E 21:34:49 20° ESE
Meteor 2-17 Rocket 4.5 21:27:15 10° N 21:33:25 89° E 21:39:34 10° S
Lacrosse 5 rocket 3.9 21:30:18 10° W 21:33:26 23° NW 21:36:41 10° NNE
Cosmos 1500 4.2 21:30:40 10° NNW 21:34:25 48° W 21:38:10 10° SSW
OTV 4 1.9 21:36:19 10° W 21:38:52 26° SSW 21:40:00 20° S
DEBRIS 4.3 21:39:29 10° NW 21:43:35 23° NNE 21:45:19 13° ENE
Cosmos 1331 Rocket 4.0 21:38:28 10° NNW 21:43:40 69° ENE 21:47:14 20° SSE
Meteor 1-23 Rocket 4.2 21:38:49 10° S 21:44:26 86° W 21:50:09 10° N
Cosmos 1743 3.0 21:40:58 10° NNW 21:44:46 67° W 21:48:15 12° S
Okean 2 3.6 21:45:34 10° S 21:49:43 75° W 21:53:55 10° N
Cosmos 1726 Rocket 3.8 21:45:48 10° NNW 21:50:13 69° W 21:54:12 12° S
ALOS 3.6 21:46:27 10° SSW 21:50:47 38° W 21:55:09 10° NNW
SeaSat 1 3.1 21:50:09 24° ESE 21:52:40 41° ENE 21:57:16 10° N
Cosmos 1302 Rocket 4.4 21:47:55 10° N 21:52:58 47° ENE 21:55:30 27° SE
Cosmos 2285 Rocket 4.0 21:47:30 10° NNW 21:53:49 73° ENE 21:58:06 22° SSE
Cosmos 1603 3.6 21:52:54 10° S 21:58:26 64° ESE 22:03:59 10° NNE
CZ-4B R/B 3.8 21:56:19 10° NNE 22:01:12 45° E 22:03:36 27° SSE
Cosmos 2058 Rocket 3.3 21:57:04 10° NNW 22:01:24 68° W 22:04:29 19° S
UNK 4.2 21:58:04 10° NNE 22:03:30 63° ESE 22:08:12 15° S
Cosmos 1602 Rocket 3.5 22:01:25 21° S 22:04:21 76° E 22:08:50 10° N
APEX 4.0 22:01:20 10° NNW 22:05:34 57° ENE 22:07:37 34° SE
Cosmos 1464 Rocket 4.0 22:00:28 10° N 22:06:37 83° W 22:11:28 17° S
CZ-2C R/B 3.1 22:06:25 14° SW 22:07:22 17° W 22:09:00 10° NW
Meteor 2-9 Rocket 4.2 22:02:16 10° N 22:07:59 89° W 22:11:50 22° S
PSLV R/B 3.1 22:09:29 66° E 22:09:33 66° ENE 22:12:37 10° N
Cosmos 1461 3.8 22:06:33 10° N 22:10:22 32° NE 22:11:08 30° ENE
Delta 168 4.0 22:07:21 10° SW 22:10:31 30° S 22:10:31 30° S
Cosmos 2297 4.3 22:11:57 10° NNW 22:17:31 55° WSW 22:21:01 22° S
Cosmos 1812 Rocket 3.8 22:15:07 10° N 22:19:23 50° E 22:19:55 47° ESE
ATLAS 3B R/B 3.3 22:16:52 27° SSE 22:20:11 39° ESE 22:27:08 10° NE
ERS-1 Rocket 4.2 22:16:55 12° SSW 22:21:03 38° W 22:25:43 10° NNW
Envisat 3.0 22:19:51 31° S 22:22:18 78° WSW 22:27:24 10° NNW
Cosmos 1943 3.6 22:23:34 39° ESE 22:24:04 40° ESE 22:29:22 10° NE
Cosmos 2034 Rocket 4.1 22:18:12 10° N 22:24:35 81° W 22:28:23 26° S
YAOGAN 6 3.2 22:24:55 45° ENE 22:24:55 45° ENE 22:28:14 10° N
H-2A R/B 3.6 22:25:28 17° SSW 22:28:04 31° W 22:31:53 10° NW
OAO 3 Copernicus 4.2 22:23:04 10° WNW 22:28:08 86° N 22:29:35 48° E
Centaur D AC-29 4.2 22:23:44 10° W 22:31:40 15° WSW 22:35:36 10° SSW
USA 234 3.6 22:30:35 32° ESE 22:33:33 56° NE 22:39:56 10° NNW
Abrixas rocket 3.1 22:33:44 10° NW 22:36:37 46° N 22:36:37 46° N
USA 81 4.3 22:32:57 10° N 22:38:04 47° E 22:38:24 47° E
MetOp-A 4.1 22:37:41 45° S 22:39:24 82° WSW 22:44:47 10° NNW
CZ-4C R/B 4.2 22:51:16 43° NE 22:51:16 43° NE 22:54:37 10° N
Cosmos 1953 Rocket 4.2 22:55:36 45° NE 22:55:36 45° NE 22:58:52 10° NNE
Atlas Centaur 2 2.9 22:49:19 10° WSW 22:57:15 70° S 23:00:56 38° E
Meteor 2-12 Rocket 4.4 22:52:03 10° N 22:58:09 80° W 22:59:40 53° S
H-2A R/B 2.8 22:59:58 36° ENE 22:59:58 36° ENE 23:04:04 10° N
Cosmos 2346 Rocket 4.4 23:01:24 51° SSW 23:03:05 85° W 23:09:18 10° N
COSMOS 2455 3.6 22:59:08 10° SW 23:04:55 50° WNW 23:10:45 10° NNE
CZ-4 R/B 4.4 23:00:18 10° N 23:05:11 58° WNW 23:06:34 42° SW
Cosmos 1992 Rocket 4.0 23:00:54 10° N 23:05:55 67° ENE 23:05:55 67° ENE
DELTA 2 DEB (DPAF) 4.5 23:07:17 61° NNE 23:07:17 61° NNE 23:11:04 10° N
SPOT 5 4.3 23:06:10 23° WSW 23:07:11 25° W 23:10:49 10° NW
SPOT 1/Viking Rocket 3.8 23:07:22 56° SW 23:07:57 60° W 23:13:03 10° NNW
Milstar 3 Cent rocket 3.9 23:05:23 10° WSW 23:08:18 19° SW 23:08:18 19° SW
ARGOS 3.1 23:10:54 70° SW 23:11:19 74° WSW 23:16:46 10° NNW
Cosmos 2369 Rocket 2.6 23:07:45 10° N 23:13:08 51° ENE 23:13:08 51° ENE
Cosmos 1190 Rocket 4.1 23:17:39 71° W 23:17:54 72° WNW 23:23:13 10° NNE
Landsat 7 4.1 23:18:57 62° N 23:18:57 62° N 23:22:56 10° N
NOAA 11 4.2 23:19:15 67° WSW 23:19:27 68° WSW 23:24:52 10° NNW
DMSP B5D2-2 4.4 23:16:21 10° NNE 23:20:42 58° NE 23:20:42 58° NE
Lacrosse 4 Rocket 3.4 23:31:19 23° NNE 23:31:19 23° NNE 23:33:00 10° NNE
SeaSat 1 4.3 23:29:57 20° WSW 23:30:14 20° WSW 23:33:52 10° WNW
Meteor 1-22 Rocket 4.2 23:24:38 10° N 23:29:58 81° NW 23:29:58 81° NW
Terra 2.6 23:35:13 50° N 23:35:13 50° N 23:38:44 10° N
Cosmos 676 Rocket 4.4 23:35:11 58° NNE 23:35:11 58° NNE 23:39:27 10° NNE
